Preview of NWS' New Version of Forecast
This preview is not operational and should not be used for support decisions.

Regional Weather Roundup (RWR)

Issued by National Weather Service (NWS)

                            
000
ASUS43 KDMX 191106
RWRIA 

WEATHER ROUNDUP FOR IOWA
NATIONAL WEATHER SERVICE DES MOINES IA
500 AM CST TUE FEB 19 2019

NOTE: "FAIR" INDICATES FEW OR NO CLOUDS BELOW 12,000 FEET WITH NO
SIGNIFICANT WEATHER AND/OR OBSTRUCTIONS TO VISIBILITY.

* - THESE STATIONS ARE NOT NWS STATIONS...THUS NOT UNDER NWS
QUALITY CONTROL.  THEY ALSO DO NOT REPORT WEATHER SUCH 
AS PRECIPITATION OR FOG.  

IAZ001>003-012>014-020>022-031>034-043>046-191200-
   NORTHWEST IOWA
  
CITY           SKY/WX    TMP DP  RH WIND       PRES   REMARKS
CARROLL *      CLOUDY    -8  -9  92 CALM      30.53F                  
CHEROKEE *     CLOUDY   -11 -15  84 CALM      30.55S                  
DENISON *      CLOUDY    -2  -4  92 CALM      30.54F                  
LE MARS *      CLOUDY    -9 -13  84 N5        30.53F FOG     WCI -21  
ORANGE CITY *  CLOUDY    -2  -6  84 CALM      30.51S FOG              
SHELDON *      CLOUDY   -13 -15  92 CALM      30.50S FOG              
SIOUX CITY     CLOUDY     0  -3  87 NW3       30.54F                  
SPENCER        HAZE      -9 -15  75 CALM      30.53S VSB 1/4          
STORM LAKE *   CLOUDY     5   3  92 NW3       30.50F                  
$$
 
IAZ055>058-069>071-079>083-090>094-191200-
   SOUTHWEST IOWA
  
CITY           SKY/WX    TMP DP  RH WIND       PRES   REMARKS
ATLANTIC *     CLOUDY    -9 -11  92 N5        30.54F WCI -21          
AUDUBON *      CLOUDY   -11 -17  77 CALM      30.53S                  
CLARINDA *     CLOUDY     0  -4  85 NE5       30.57R WCI -10          
COUNCIL BLFS * CLOUDY     5   5 100 E5        30.51F WCI  -4          
CRESTON *      CLOUDY     5   3  92 NE10      30.53F WCI -10          
HARLAN  *      CLOUDY    -8  -9  92 CALM      30.54S                  
LAMONI         CLOUDY     5   2  87 NE5       30.52S WCI  -4          
RED OAK *      CLOUDY    -4  -6  92 NE5       30.55S WCI -15          
SHENANDOAH *   CLOUDY     1   0  92 NE5       30.56R WCI  -8          
$$
 
IAZ047>049-059>061-072>074-084-191200-
   CENTRAL IOWA
  
CITY           SKY/WX    TMP DP  RH WIND       PRES   REMARKS
AMES           CLOUDY    -6  -9  86 N5        30.58S WCI -17          
ANKENY *       FOG       -4  -8  84 NE5       30.59S VSB 1/4 WCI -15  
BOONE *        FOG       -4  -6  92 N3        30.54F VSB<1/4          
CHARITON *     CLOUDY     1   0  92 N6        30.55S WCI -10          
DES MOINES     CLOUDY     0  -3  87 CALM      30.57S                  
GRINNELL*      CLOUDY    -5  -8  86 CALM      30.57S                  
KNOXVILLE *    CLOUDY     0   0 100 NW3       30.57S FOG              
MARSHALLTOWN   CLOUDY   -10 -13  86 NW3       30.57S                  
NEWTON *       CLOUDY     0  -2  92 NE6       30.57S WCI -12          
PELLA *        CLOUDY    -1  -4  87 CALM      30.59S                  
$$
 
IAZ004>006-015-016-023>025-035-036-191200-
   NORTH CENTRAL IOWA
  
CITY           SKY/WX    TMP DP  RH WIND       PRES   REMARKS
ALGONA *       ICE FOG  -13 -17  84 CALM      30.53S VSB<1/4          
CLARION *      HAZE     -15 -20  76 CALM      30.57S VSB<1/4          
ESTHERVILLE    CLOUDY   -11 -15  82 S3        30.52F FOG              
FORT DODGE *   CLOUDY   -12 -17  78 CALM      30.56F HAZE             
MASON CITY     CLOUDY   -12 -17  78 CALM      30.57R                  
FOREST CITY *  FAIR     -11 -17  77 CALM      30.55R                  
IOWA FALLS *   FOG       -8 -13  80 CALM      30.58S VSB 1/2          
$$

IAZ007>011-017>019-026>030-037>042-050>054-066-191200-
   NORTHEAST IOWA
  
CITY           SKY/WX    TMP DP  RH WIND       PRES   REMARKS
CEDAR RAPIDS   FOG       -5  -7  91 NW5       30.57S VSB 1/4 WCI -16  
CHARLES CITY * FAIR      -6 -11  77 CALM      30.57R                  
CLINTON *      FAIR      -1  -4  87 W5        30.61R WCI -11          
DECORAH *      FAIR      -2  -2 100 CALM      30.55R                  
DUBUQUE        CLOUDY    -1  -6  79 CALM      30.56R                  
OELWEIN *      FAIR      -4  -8  84 CALM      30.57R                  
WATERLOO       FAIR     -12 -16  82 NW3       30.59R                  
$$
 
IAZ064-065-067-068-078-191200-
   EAST CENTRAL IOWA
  
CITY           SKY/WX    TMP DP  RH WIND       PRES   REMARKS
DAVENPORT      FAIR       1  -4  79 CALM      30.61R                  
IOWA CITY      FAIR       0  -3  87 W3        30.62R                  
MT. PLEASANT * CLOUDY     9   7  92 CALM      30.60S                  
MUSCATINE *    FAIR       3   0  85 CALM      30.63R                  
QUAD CITIES    FAIR       4   0  83 CALM      30.60R                  
$$
 
IAZ062-063-075>077-085>089-095>099-191200-
   SOUTHEAST IOWA
  
CITY           SKY/WX    TMP DP  RH WIND       PRES   REMARKS
BURLINGTON     CLOUDY    10   6  84 CALM      30.60R                  
FAIRFIELD *    CLOUDY     1  -6  71 CALM      30.59R                  
KEOKUK *       CLOUDY    14  12  92 N5        30.58F WCI   6          
OSKALOOSA *    FAIR      -1  -4  87 CALM      30.59S FOG              
OTTUMWA        CLOUDY     2  -1  88 N3        30.58S                  
WASHINGTON *   CLOUDY     0  -2  92 CALM      30.61S                  
$$

ABBREVIATIONS USED IN REMARKS
   TC - TEMPERATURES IN CELSIUS
  WCI - WIND CHILL INDEX
   HX - HEAT INDEX
  VSB - VISIBILITY  
$$